Location: Arroyo de San Miguel
(40.9167°N, 4.6667°W)
Time: 02:17:56
(UTC+00:00)

ARIANE 5 R/B - Pass Details

Date: 19 May 2025
Orbit: 615 x 647 km, 98.0° (Epoch: 20 June)

Event Time Altitude Azimuth Distance (km) Brightness Sun altitude
Exits shadow 23:01:15 44° 39° (NE) 858 3.4 -26.7°
Drops below altitude 10° 23:04:43 10° 358° (N) 1,998 6.1 -26.9°
Sets 23:06:58 0° 353° (N) 2,913 7.2 -27.1°
